User: anonymous   Login
Location: Caltech
(34.1382°N, 118.1253°W)
Time: 15:07:28
(UTC-07:00)
Language:

Iridium 14 - Orbit

View from above orbital plane
View from above orbital plane
View from above satellite
View from above satellite

Ground track
Ground track

The orbit data is extracted from the following two-line orbital elements,

1 25777U 99032A   15148.53242962  .00000066  00000-0  16487-4 0  9995
2 25777 086.3975 177.7208 0002136 089.1568 022.6144 14.34213791847080
Epoch (UTC): 28 May 2015 12:46:41
Eccentricity: 0.0002136
inclination: 86.3975°
perigee height: 776 km
apogee height: 779 km
right ascension of ascending node: 177.7208°
argument of perigee: 89.1568°
revolutions per day: 14.34213791
mean anomaly at epoch: 22.6144°
orbit number at epoch: 84708

The dashed part of the orbit path shows where the satellite is in the earth's shadow,  

DLR